{"data":{"norad_id":41891,"intl_designator":"2016-078H","name":"CYGFM03","alt_names":[],"object_type":"PAYLOAD","status":"INACTIVE","operator":null,"country":"US","launch_date":"2016-12-15","launch_site_code":"ERAS","launch_vehicle":null,"mission":null,"orbit_class":"UNKNOWN","rcs_meters":0.192,"size_class":null,"mass_kg":null,"dimensions":null,"purposes":["earth_obs"],"wikipedia_slug":null,"has_3d_model":false,"image_url":null,"decayed_at":null,"tle_current":{"epoch":"2026-09-20T04:26:42.493920Z","epoch_age_seconds":41598,"freshness":"FRESH","line1":"1 41891U 16078H   26263.18521405  .00026336  00000+0  25631-3 0  9999","line2":"2 41891  34.9400 316.6811 0003117  15.8327 344.2496 15.65229591543840","mean_motion":15.65229591,"eccentricity":0.0003117,"inclination_deg":34.94,"raan_deg":316.6811,"arg_perigee_deg":15.8327,"mean_anomaly_deg":344.2496,"bstar":0.00025631,"rev_number":54384,"period_min":91.999282934589,"perigee_km":370.47434174364,"apogee_km":374.68273781114,"semimajor_km":6750.7155397774,"source":"CELESTRAK","updated_at":"2026-09-20T09:00:33.219287Z"}}}